This demonstration page uses our WeatherBlox Daily Observations layout. Learn more.

Hourly Observations for June 24, 2020

Temp ( °F °C ) Dew Point ( °F °C ) Humidity (%) Winds ( mph kmh ) Pressure ( in mb ) Visibility ( mi km ) Precip ( " mm )
12:54 am 00:54 Clear 63 17.2 54 12.2 73 73 Calm 29.99 1016 10 16.0934 0 0
1:54 am 01:54 Clear 57 13.9 53 11.7 87 87 N 3 6 29.98 1015 10 16.0934 0 0
2:54 am 02:54 Clear 57 13.9 53 11.7 87 87 Calm 29.98 1015 10 16.0934 0 0
3:54 am 03:54 Clear 56 13.3 53 11.7 90 90 Calm 29.98 1015 10 16.0934 0 0
4:54 am 04:54 Clear 54 12.2 51 10.6 90 90 NNE 3 6 29.98 1015 10 16.0934 0 0
5:54 am 05:54 Clear 55 12.8 52 11.1 90 90 Calm 29.98 1015 10 16.0934 0 0
6:54 am 06:54 Sunny 58 14.4 54 12.2 87 87 N 3 6 29.98 1015 10 16.0934 0 0
7:54 am 07:54 Sunny 63 17.2 55 12.8 76 76 Calm 29.97 1015 10 16.0934 0 0
8:54 am 08:54 Sunny 69 20.6 57 13.9 66 66 Calm 29.97 1015 10 16.0934 0 0
9:54 am 09:54 Sunny 73 22.8 57 13.9 57 57 Calm 29.96 1015 10 16.0934 0 0
10:54 am 10:54 Sunny 77 25 56 13.3 48 48 N 6 9 29.96 1014 10 16.0934 0 0
11:54 am 11:54 Sunny 79 26.1 55 12.8 44 44 VRB 3 6 29.96 1014 10 16.0934 0 0
12:54 pm 12:54 Sunny 81 27.2 54 12.2 39 39 NE 6 9 29.95 1014 10 16.0934 0 0
1:54 pm 13:54 Sunny 82 27.8 55 12.8 40 40 NNE 5 7 29.93 1014 10 16.0934 0 0
2:54 pm 14:54 Sunny 83 28.3 55 12.8 38 38 ENE 5 7 29.91 1013 10 16.0934 0 0
3:54 pm 15:54 Sunny 83 28.3 53 11.7 36 36 Calm 29.9 1013 10 16.0934 0 0
4:54 pm 16:54 Sunny 86 30 54 12.2 33 33 NNE 6 9 29.89 1012 10 16.0934 0 0
5:54 pm 17:54 Sunny 84 28.9 52 11.1 33 33 N 5 7 29.87 1012 10 16.0934 0 0
6:54 pm 18:54 Sunny 82 27.8 56 13.3 41 41 SSE 7 11 29.86 1011 10 16.0934 0 0
7:54 pm 19:54 Sunny 80 26.7 57 13.9 45 45 S 8 13 29.86 1011 10 16.0934 0 0
8:54 pm 20:54 Sunny 75 23.9 57 13.9 54 54 S 6 9 29.87 1011 10 16.0934 0 0
9:54 pm 21:54 Clear 75 23.9 57 13.9 54 54 SSE 5 7 29.88 1012 10 16.0934 0 0
10:54 pm 22:54 Clear 73 22.8 56 13.3 55 55 SE 6 9 29.89 1012 10 16.0934 0 0
11:54 pm 23:54 Mostly Cloudy 72 22.2 57 13.9 59 59 SE 3 6 29.89 1012 10 16.0934 0 0

Powered by AerisWeather